Radiation Dose at Monitoring Post of Fukushima Daini Nuclear Power Station
Date,Time,MP-1(microSv/h),MP-2(microSv/h),MP-3(microSv/h),MP-4(microSv/h),MP-5(microSv/h),MP-6(microSv/h),MP-7(microSv/h),Wind Direction,Wind Velocity(m/s),Rain
2024/06/06,00:00,0.145,0.129,0.208,0.194,0.205,0.113,0.074,north-northwest,1.0,No
2024/06/06,00:10,0.145,0.129,0.208,0.195,0.207,0.113,0.074,northwest,1.8,No
2024/06/06,00:20,0.146,0.130,0.207,0.195,0.205,0.114,0.074,northwest,1.7,No
2024/06/06,00:30,0.145,0.129,0.208,0.195,0.206,0.113,0.074,northwest,1.4,No
2024/06/06,00:40,0.146,0.128,0.207,0.195,0.205,0.114,0.073,northwest,1.1,No
2024/06/06,00:50,0.145,0.129,0.206,0.194,0.206,0.114,0.073,north,1.6,No
2024/06/06,01:00,0.145,0.128,0.207,0.194,0.204,0.114,0.074,north-northeast,1.0,No
2024/06/06,01:10,0.146,0.130,0.207,0.193,0.205,0.113,0.074,north-northeast,0.9,No
2024/06/06,01:20,0.145,0.128,0.207,0.194,0.204,0.113,0.073,-,CALM,No
2024/06/06,01:30,0.146,0.129,0.207,0.193,0.206,0.114,0.073,-,CALM,No
2024/06/06,01:40,0.144,0.129,0.208,0.194,0.205,0.114,0.073,-,CALM,No
2024/06/06,01:50,0.145,0.129,0.207,0.193,0.206,0.114,0.074,-,CALM,No
2024/06/06,02:00,0.145,0.129,0.206,0.195,0.205,0.114,0.073,-,CALM,No
2024/06/06,02:10,0.146,0.129,0.207,0.196,0.206,0.113,0.074,-,CALM,No
2024/06/06,02:20,0.144,0.129,0.207,0.193,0.205,0.113,0.073,-,CALM,No
2024/06/06,02:30,0.145,0.129,0.207,0.194,0.204,0.114,0.074,north-northeast,0.6,No
2024/06/06,02:40,0.145,0.128,0.208,0.195,0.205,0.114,0.073,-,CALM,No
2024/06/06,02:50,0.145,0.130,0.206,0.194,0.204,0.113,0.074,-,CALM,No
2024/06/06,03:00,0.145,0.128,0.208,0.196,0.206,0.114,0.074,north-northwest,0.6,No
2024/06/06,03:10,0.146,0.128,0.207,0.194,0.205,0.114,0.075,-,CALM,No
2024/06/06,03:20,0.144,0.129,0.207,0.195,0.206,0.114,0.074,-,CALM,No
2024/06/06,03:30,0.146,0.129,0.207,0.195,0.205,0.114,0.074,-,CALM,Yes
2024/06/06,03:40,0.145,0.129,0.207,0.195,0.205,0.114,0.074,north,0.6,No
2024/06/06,03:50,0.146,0.129,0.207,0.195,0.205,0.114,0.073,northwest,0.6,No
2024/06/06,04:00,0.145,0.129,0.207,0.194,0.205,0.113,0.073,north-northwest,1.6,No
2024/06/06,04:10,0.145,0.129,0.206,0.194,0.206,0.113,0.074,northwest,2.7,No
2024/06/06,04:20,0.145,0.129,0.208,0.195,0.204,0.114,0.074,northwest,2.7,No
2024/06/06,04:30,0.145,0.129,0.207,0.194,0.206,0.113,0.074,northwest,2.1,Yes
2024/06/06,04:40,0.146,0.129,0.207,0.195,0.205,0.114,0.074,north-northwest,2.1,No
2024/06/06,04:50,0.145,0.129,0.207,0.194,0.204,0.114,0.074,north,2.5,No
2024/06/06,05:00,0.145,0.129,0.207,0.196,0.205,0.114,0.074,north-northwest,2.1,No
2024/06/06,05:10,0.145,0.128,0.207,0.194,0.206,0.114,0.073,north-northwest,3.1,No
2024/06/06,05:20,0.146,0.129,0.208,0.195,0.205,0.114,0.074,north,2.6,No
2024/06/06,05:30,0.145,0.128,0.207,0.194,0.205,0.114,0.073,north-northwest,3.2,Yes
2024/06/06,05:40,0.145,0.128,0.205,0.194,0.204,0.114,0.073,north-northwest,3.8,No
2024/06/06,05:50,0.145,0.129,0.207,0.194,0.205,0.113,0.074,north-northwest,3.3,No
2024/06/06,06:00,0.144,0.129,0.206,0.195,0.203,0.114,0.073,north,3.5,No
2024/06/06,06:10,0.145,0.128,0.207,0.195,0.204,0.114,0.074,north,3.1,No
2024/06/06,06:20,0.144,0.128,0.207,0.194,0.203,0.112,0.074,north,2.7,No
2024/06/06,06:30,0.144,0.128,0.206,0.195,0.205,0.114,0.073,north-northeast,2.0,No
2024/06/06,06:40,0.144,0.128,0.207,0.193,0.205,0.115,0.073,-,CALM,No
2024/06/06,06:50,0.144,0.128,0.206,0.194,0.203,0.113,0.072,northeast,0.9,No
2024/06/06,07:00,0.144,0.127,0.206,0.193,0.205,0.114,0.073,-,CALM,No
2024/06/06,07:10,0.144,0.127,0.206,0.194,0.203,0.112,0.073,east,1.1,No
2024/06/06,07:20,0.144,0.128,0.205,0.193,0.206,0.114,0.073,east,1.6,No
2024/06/06,07:30,0.142,0.128,0.204,0.191,0.204,0.112,0.072,east,2.1,No
2024/06/06,07:40,0.144,0.127,0.207,0.194,0.202,0.113,0.072,east,2.2,No
2024/06/06,07:50,0.145,0.128,0.204,0.192,0.206,0.114,0.073,east-southeast,2.0,No
2024/06/06,08:00,0.143,0.129,0.204,0.192,0.203,0.113,0.073,east,2.2,No
2024/06/06,08:10,0.143,0.127,0.203,0.192,0.202,0.113,0.073,east-northeast,1.8,No
2024/06/06,08:20,0.143,0.127,0.203,0.193,0.205,0.113,0.073,east-northeast,2.4,No
2024/06/06,08:30,0.146,0.128,0.205,0.192,0.203,0.112,0.073,northeast,2.1,No
2024/06/06,08:40,0.144,0.129,0.207,0.191,0.202,0.114,0.073,east-northeast,2.7,No
2024/06/06,08:50,0.144,0.128,0.207,0.191,0.202,0.113,0.074,east-northeast,2.5,No
2024/06/06,09:00,0.143,0.127,0.205,0.193,0.206,0.113,0.073,east,3.4,Yes
2024/06/06,09:10,0.144,0.128,0.204,0.195,0.204,0.112,0.073,east,3.1,No
2024/06/06,09:20,0.145,0.128,0.203,0.194,0.202,0.114,0.073,east,3.1,No
2024/06/06,09:30,0.144,0.127,0.207,0.192,0.203,0.112,0.073,east-southeast,2.5,Yes
2024/06/06,09:40,0.143,0.127,0.207,0.193,0.205,0.112,0.073,east,2.4,No
2024/06/06,09:50,0.143,0.127,0.204,0.191,0.205,0.113,0.072,east,2.7,No
2024/06/06,10:00,0.142,0.128,0.205,0.193,0.202,0.114,0.074,east-southeast,3.3,No
2024/06/06,10:10,0.143,0.127,0.204,0.194,0.203,0.113,0.073,east-southeast,2.7,No
2024/06/06,10:20,0.145,0.127,0.204,0.193,0.204,0.113,0.073,east,2.4,No
2024/06/06,10:30,0.143,0.128,0.207,0.193,0.203,0.113,0.072,east-southeast,2.1,No
2024/06/06,10:40,0.143,0.129,0.207,0.194,0.202,0.113,0.073,southeast,2.6,Yes
2024/06/06,10:50,0.144,0.128,0.205,0.195,0.202,0.113,0.073,east-southeast,2.6,No
2024/06/06,11:00,0.144,0.127,0.205,0.194,0.206,0.113,0.073,east-southeast,3.5,No
2024/06/06,11:10,0.146,0.129,0.206,0.193,0.205,0.112,0.073,east-southeast,3.0,No
2024/06/06,11:20,0.145,0.128,0.206,0.194,0.202,0.114,0.073,east-southeast,2.3,No
2024/06/06,11:30,0.143,0.128,0.206,0.195,0.205,0.113,0.072,east-southeast,2.8,No
2024/06/06,11:40,0.143,0.129,0.205,0.194,0.205,0.113,0.074,east-southeast,2.1,No
2024/06/06,11:50,0.144,0.128,0.207,0.194,0.203,0.114,0.073,south-southeast,1.3,No
2024/06/06,12:00,0.146,0.127,0.206,0.195,0.202,0.113,0.073,east-southeast,2.5,No
2024/06/06,12:10,0.143,0.128,0.205,0.196,0.205,0.113,0.073,east-southeast,2.6,No
2024/06/06,12:20,0.143,0.128,0.204,0.194,0.203,0.114,0.073,east-southeast,2.7,No
2024/06/06,12:30,0.143,0.128,0.207,0.192,0.204,0.112,0.073,southeast,3.1,No
2024/06/06,12:40,0.142,0.128,0.207,0.196,0.202,0.112,0.073,southeast,3.4,No
2024/06/06,12:50,0.145,0.127,0.205,0.196,0.205,0.113,0.072,southeast,3.4,No
2024/06/06,13:00,0.144,0.129,0.205,0.193,0.205,0.113,0.073,southeast,2.5,No
2024/06/06,13:10,0.145,0.129,0.207,0.193,0.203,0.112,0.074,southeast,2.4,No
2024/06/06,13:20,0.144,0.128,0.207,0.197,0.202,0.114,0.073,southeast,2.0,No
2024/06/06,13:30,0.142,0.127,0.205,0.196,0.205,0.113,0.073,east-southeast,2.8,No
2024/06/06,13:40,0.144,0.128,0.206,0.194,0.204,0.113,0.073,east-southeast,3.1,Yes
2024/06/06,13:50,0.145,0.129,0.208,0.191,0.204,0.112,0.073,east-southeast,3.6,No
2024/06/06,14:00,0.144,0.128,0.205,0.195,0.203,0.113,0.073,east-southeast,3.6,No
2024/06/06,14:10,0.144,0.127,0.204,0.195,0.206,0.113,0.073,east-southeast,2.8,No
2024/06/06,14:20,0.144,0.129,0.206,0.194,0.204,0.113,0.073,east-southeast,3.0,No
2024/06/06,14:30,0.144,0.129,0.208,0.193,0.202,0.113,0.074,east-southeast,2.3,No
2024/06/06,14:40,0.145,0.128,0.204,0.195,0.204,0.113,0.073,east-southeast,2.6,No
2024/06/06,14:50,0.146,0.129,0.207,0.195,0.205,0.113,0.074,east-southeast,1.9,Yes
2024/06/06,15:00,0.143,0.129,0.208,0.194,0.203,0.114,0.073,east-southeast,1.7,No
2024/06/06,15:10,0.144,0.127,0.206,0.195,0.203,0.113,0.073,east-southeast,2.3,No
2024/06/06,15:20,0.145,0.129,0.206,0.195,0.206,0.114,0.074,east-southeast,2.1,No
2024/06/06,15:30,0.145,0.129,0.209,0.194,0.204,0.114,0.074,east-southeast,2.0,No
2024/06/06,15:40,0.143,0.129,0.206,0.195,0.204,0.112,0.073,east-southeast,1.5,No
2024/06/06,15:50,0.145,0.128,0.206,0.196,0.205,0.114,0.073,east-southeast,1.6,No
2024/06/06,16:00,0.145,0.128,0.208,0.194,0.206,0.113,0.073,east-southeast,1.3,No
2024/06/06,16:10,0.143,0.128,0.207,0.194,0.203,0.113,0.073,southeast,1.3,No
2024/06/06,16:20,0.144,0.128,0.208,0.197,0.207,0.114,0.073,southeast,0.6,No
2024/06/06,16:30,0.146,0.128,0.207,0.194,0.205,0.112,0.074,east-southeast,0.6,No
2024/06/06,16:40,0.145,0.128,0.206,0.195,0.203,0.114,0.073,south-southeast,1.8,No
2024/06/06,16:50,0.144,0.129,0.208,0.196,0.206,0.114,0.073,south-southeast,2.5,No
2024/06/06,17:00,0.145,0.129,0.208,0.194,0.205,0.114,0.073,south-southeast,2.2,No
2024/06/06,17:10,0.144,0.128,0.206,0.196,0.203,0.113,0.073,south,1.8,No
2024/06/06,17:20,0.144,0.128,0.209,0.196,0.206,0.113,0.073,south-southeast,2.0,No
2024/06/06,17:30,0.144,0.128,0.205,0.194,0.204,0.113,0.073,south-southeast,1.8,No
2024/06/06,17:40,0.144,0.129,0.208,0.196,0.205,0.113,0.074,south-southeast,2.1,No
2024/06/06,17:50,0.144,0.128,0.208,0.195,0.206,0.113,0.073,south-southeast,3.1,No
2024/06/06,18:00,0.145,0.129,0.207,0.196,0.204,0.113,0.073,south-southeast,3.0,No
2024/06/06,18:10,0.144,0.128,0.207,0.196,0.206,0.114,0.073,south-southeast,3.4,No
2024/06/06,18:20,0.145,0.129,0.207,0.195,0.205,0.113,0.073,south-southeast,4.2,No
2024/06/06,18:30,0.145,0.128,0.207,0.197,0.205,0.113,0.073,south,4.6,No
2024/06/06,18:40,0.144,0.128,0.206,0.194,0.204,0.113,0.073,south-southeast,5.2,No
2024/06/06,18:50,0.145,0.129,0.209,0.196,0.204,0.113,0.073,south-southeast,4.9,No
2024/06/06,19:00,0.144,0.128,0.206,0.195,0.205,0.113,0.073,south,4.6,No
2024/06/06,19:10,0.145,0.129,0.208,0.196,0.203,0.113,0.073,south,5.0,No
2024/06/06,19:20,0.144,0.128,0.206,0.195,0.205,0.114,0.073,south,5.2,No
2024/06/06,19:30,0.146,0.128,0.208,0.195,0.202,0.113,0.072,south-southeast,5.4,No
2024/06/06,19:40,0.144,0.129,0.206,0.196,0.205,0.113,0.074,south,5.2,No
2024/06/06,19:50,0.146,0.129,0.208,0.195,0.204,0.114,0.073,south,5.1,No
2024/06/06,20:00,0.146,0.129,0.206,0.197,0.205,0.113,0.073,south,4.8,No
2024/06/06,20:10,0.145,0.128,0.207,0.194,0.204,0.114,0.073,south,4.4,No
2024/06/06,20:20,0.145,0.128,0.206,0.196,0.204,0.113,0.074,south,5.1,No
2024/06/06,20:30,0.143,0.129,0.207,0.194,0.206,0.114,0.073,south,5.5,No
2024/06/06,20:40,0.146,0.129,0.207,0.195,0.204,0.113,0.074,south,4.6,No
2024/06/06,20:50,0.143,0.128,0.208,0.195,0.206,0.113,0.073,south,4.2,No
2024/06/06,21:00,0.146,0.129,0.207,0.196,0.203,0.114,0.074,south,4.6,No
2024/06/06,21:10,0.144,0.129,0.207,0.195,0.205,0.113,0.073,south,4.3,No
2024/06/06,21:20,0.144,0.129,0.207,0.196,0.203,0.114,0.073,south,3.2,No
2024/06/06,21:30,0.145,0.128,0.208,0.196,0.206,0.113,0.074,south,3.6,No
2024/06/06,21:40,0.144,0.129,0.208,0.195,0.204,0.114,0.073,south,4.0,No
2024/06/06,21:50,0.145,0.129,0.208,0.195,0.205,0.113,0.074,south,3.6,No
2024/06/06,22:00,0.144,0.128,0.208,0.195,0.206,0.114,0.074,south,3.2,No
2024/06/06,22:10,0.145,0.129,0.207,0.196,0.205,0.113,0.074,south,2.9,No
2024/06/06,22:20,0.144,0.128,0.207,0.195,0.205,0.114,0.074,south,3.1,No
2024/06/06,22:30,0.146,0.130,0.208,0.195,0.204,0.113,0.074,south,2.3,No
2024/06/06,22:40,0.144,0.129,0.207,0.195,0.206,0.113,0.074,south,1.6,No
2024/06/06,22:50,0.146,0.130,0.210,0.196,0.204,0.114,0.074,south,0.9,No
2024/06/06,23:00,0.145,0.129,0.208,0.197,0.207,0.114,0.074,west,1.1,No
2024/06/06,23:10,0.147,0.130,0.209,0.196,0.206,0.115,0.075,west-northwest,1.2,Yes
2024/06/06,23:20,0.146,0.129,0.209,0.196,0.207,0.114,0.074,northwest,2.4,No
2024/06/06,23:30,0.146,0.130,0.210,0.196,0.205,0.115,0.075,north-northwest,3.5,No
2024/06/06,23:40,0.146,0.130,0.208,0.197,0.207,0.114,0.074,north-northwest,3.8,No
2024/06/06,23:50,0.147,0.131,0.210,0.196,0.206,0.115,0.075,north-northwest,4.5,Yes
